This is the latest recevied weather packets stored in our database for station/object AI5BL. If no packets are shown the sender has not sent any weather packets the latest 10 day(s).
| Time | Temp. | Humidity | Pressure | Rain* | Wind** | Luminosity | Snow |
|---|---|---|---|---|---|---|---|
| 1788288795 | 33.89° C | 53% | 1019.4 hPa | 0 mm | - | 818 W/m² | - |
| 1788288503 | 34.44° C | 51% | 1019.5 hPa | 0 mm | - | 135 W/m² | - |
| 1788288186 | 35.56° C | 48% | 1019.4 hPa | 0 mm | - | 773 W/m² | - |
| 1788287881 | 35.56° C | 49% | 1019.6 hPa | 0 mm | - | 838 W/m² | - |
| 1788287580 | 35° C | 52% | 1019.5 hPa | 0 mm | - | 824 W/m² | - |
| 1788287277 | 33.89° C | 56% | 1019.6 hPa | 0 mm | - | 841 W/m² | - |
| 1788286976 | 33.89° C | 61% | 1019.8 hPa | 0 mm | - | 205 W/m² | - |
| 1788286670 | 33.89° C | 57% | 1019.8 hPa | 0 mm | - | 384 W/m² | - |
| 1788286365 | 32.22° C | 58% | 1020 hPa | 0 mm | - | 507 W/m² | - |
| 1788286065 | 32.22° C | 60% | 1020.2 hPa | 0 mm | - | 120 W/m² | - |
| 1788285764 | 32.22° C | 64% | 1020.1 hPa | 0 mm | - | 110 W/m² | - |
| 1788285463 | 32.78° C | 58% | 1020.1 hPa | 0 mm | - | 116 W/m² | - |
| 1788285158 | 32.78° C | 59% | 1020.1 hPa | 0 mm | - | 118 W/m² | - |
| 1788284853 | 32.78° C | 59% | 1020.2 hPa | 0 mm | - | 98 W/m² | - |
| 1788284549 | 32.78° C | 58% | 1020.4 hPa | 0 mm | - | 129 W/m² | - |
| 1788284245 | 33.89° C | 56% | 1020.3 hPa | 0 mm | - | 116 W/m² | - |
| 1788283939 | 33.89° C | 56% | 1020.4 hPa | 0 mm | - | 872 W/m² | - |
| 1788283636 | 33.33° C | 57% | 1020.3 hPa | 0 mm | - | 584 W/m² | - |
| 1788283334 | 33.89° C | 60% | 1020.4 hPa | 0 mm | - | 171 W/m² | - |
| 1788283033 | 33.33° C | 62% | 1020.6 hPa | 0 mm | - | 286 W/m² | - |
| 1788282727 | 33.33° C | 58% | 1020.5 hPa | 0 mm | - | 208 W/m² | - |
| 1788282426 | 32.22° C | 60% | 1020.7 hPa | 0 mm | - | 172 W/m² | - |
| 1788282121 | 33.33° C | 59% | 1020.7 hPa | 0 mm | - | 178 W/m² | - |
| 1788281819 | 33.33° C | 57% | 1020.7 hPa | 0 mm | - | 228 W/m² | - |
| 1788281515 | 34.44° C | 56% | 1020.7 hPa | 0 mm | - | 154 W/m² | - |
* Rain latest hour (hover to see other rain measurements)
** Current wind speed in m/s (hover to see current wind gust speed)